Simultaneous Nadir Overpasses (SNOs) Predictions

Prediction of SNOs between AQUA and NPP Satellite Orbit:

Table of predicted SNOs for the next 14.0 days since TLE Epoch: 10/26/2019
Index Date (AQUA) Time (AQUA) Lat,Lon (AQUA) SZA (AQUA ) Date (NPP) Time (NPP) Lat,Lon (NPP) SZA (NPP ) Distance(km) Time Diff (sec)
1 10/26/2019 21:48:49 75.24, 89.64 109.41 10/26/2019 21:48:16 75.23, 89.55 109.46 2.71 33
2 10/26/2019 22:37:53 -76.43, -99.16 71.85 10/26/2019 22:38:36 -76.42, -99.23 71.87 1.77 43
3 10/29/2019 14:05:05 75.86,-152.73 109.63 10/29/2019 14:04:57 75.86,-152.73 109.63 0.19 8
4 10/29/2019 14:54:11 -76.92, 18.43 71.52 10/29/2019 14:55:19 -76.93, 18.47 71.60 1.24 68
5 11/01/2019 05:32:27 -74.93, 152.92 68.58 11/01/2019 05:31:27 -74.93, 152.88 68.51 1.39 60
6 11/01/2019 06:21:29 76.06, -36.21 110.25 11/01/2019 06:21:47 76.05, -36.31 110.26 2.73 18
7 11/03/2019 21:48:39 -75.73, -88.98 68.60 11/03/2019 21:48:04 -75.74, -88.90 68.58 2.35 35
8 11/03/2019 22:37:44 76.70, 81.75 110.39 11/03/2019 22:38:27 76.70, 81.80 110.34 1.21 43
9 11/06/2019 14:05:00 -76.02, 27.78 68.10 11/06/2019 14:04:51 -76.03, 27.82 68.11 1.10 9




NCC Satellite Simultaneous Nadir Overpasses (SNOs) Prediction Service
